星链-31263 (STARLINK-31263 )

导读 | 豆包AI

STARLINK-31263是美国太空探索技术公司(SpaceX)星链互联网星座中的一颗卫星,于2024年1月24日发射入轨,属于星链项目大规模组网的一部分。星链旨在为全球提供低延迟、高速率的卫星互联网服务,该卫星的成功发射进一步扩充了星链星座的在轨卫星规模,推进了星座全球覆盖的进程。

Basic Information
目录编号:
58832
目录名称:
STARLINK-31263
国际标识:
2024-017G
轨道中心:
EARTH
卫星名称:
星链-31263
卫星全名:
星链-31263 (STARLINK-31263 )
卫星状态:
在轨 (已飞行827 天)
发射日期:
2024-01-24 UTC
国别 :
美国 (US)
星等 :
--
Orbit Information
数据来源 国际轨道数据 AOE轨道数据
星历时间 2026-04-30T21:19:35+0800
10小时前
查看轨道信息
2026-04-24T18:00:00+0800
6天前
查看轨道信息
半长轴 6853.359km 6853.366km
偏心率 0.000106 0.0001384
轨道倾角 53.162° 53.158°
近地点辐角 84.683° 76.020°
升交点赤经 312.999° 341.516°
平近点角 275.429° 289.518°
近地点 474.495km 474.28km
远地点 475.949km 476.178km
周期 94.105分钟 94.106分钟
每日圈数 15.301977 15.301955
Detailed Information
固有亮度:
5
最大亮度:
0.3
卫星平台:
Starlink v2.0 mini
覆盖范围:
全球
运营商:
太空探索技术公司
运营商所在国:
美国
制造商(研发单位):
太空探索技术公司
制造商所在国:
美国
使用方式:
暂无
Satellite Introduction
星链(Starlink)计划是由太空探索技术公司(SpaceX)提出的一个巨型低轨卫星互联网星座项目,计划在2019年至2024年间在太空搭建由约1.2万颗卫星组成的“星链”网络,其中1584颗将部署在地球上空550千米处的近地轨道,并从2020年开始工作。该卫星仍在工作。
2D Orbit Map
3D Orbit Map
Orbit Altitude Analysis Chart
Orbit Inclination Analysis Chart
Orbit Comprehensive Analysis Chart
View Comprehensive Chart